Location: Appletree Creek
(38.7363°N, 122.6833°W)
Time: 17:07:34
(UTC+00:00)

ADEOS II - Pass Details

Date: 18 September 2020
Orbit: 799 x 801 km, 98.5° (Epoch: 19 October)

Event Time Altitude Azimuth Distance (km) Brightness Sun altitude
Rises 12:06:32 0° 351° (N) 3,314 5.4 -21.6°
Reaches altitude 10° 12:10:19 10° 323° (NW) 2,379 4.4 -20.9°
Enters shadow 12:11:02 11° 316° (NW) 2,282 4.2 -20.7°
